Location: Luxembourg
(49.6117°N, 6.1300°E)
Time: 13:20:05
(UTC+01:00)

Envisat - Visible Passes

Search period start: 16 November 2018 00:00
Search period end: 26 November 2018 00:00
Orbit: 764 x 766 km, 98.2° (Epoch: 16 November)

Date Brightness Start Highest point End Pass type
(mag) Time Alt. Az. Time Alt. Az. Time Alt. Az.
16 Nov 4.5 17:39:37 10° E 17:42:35 16° NE 17:45:33 10° NNE visible
16 Nov 2.8 19:16:14 12° SSE 19:20:53 86° ENE 19:26:00 10° NNW visible
16 Nov 5.7 20:57:48 10° WSW 21:00:36 15° W 21:03:26 10° NW visible
17 Nov 3.3 18:39:28 10° SE 18:44:16 44° ENE 18:49:05 10° N visible
17 Nov 4.7 20:19:29 12° SSW 20:23:26 29° W 20:27:53 10° NNW visible
18 Nov 6.4 06:46:44 10° ENE 06:47:37 10° E 06:48:31 10° E visible
18 Nov 4.0 18:03:50 10° ESE 18:07:49 24° ENE 18:11:49 10° N visible
18 Nov 3.5 19:42:30 16° S 19:46:28 59° W 19:51:31 10° NNW visible
19 Nov 4.7 17:29:14 10° E 17:31:34 13° NE 17:33:53 10° NNE visible
19 Nov 2.8 19:05:30 15° SSE 19:09:43 71° ENE 19:14:47 10° N visible
19 Nov 5.4 20:45:49 10° SW 20:49:16 18° W 20:52:45 10° NW visible
20 Nov 5.8 07:10:09 10° NE 07:13:34 18° E 07:16:58 10° SE visible
20 Nov 3.5 18:28:32 10° SE 18:33:08 36° ENE 18:37:46 10° N visible
20 Nov 4.4 20:08:41 16° SSW 20:12:10 36° W 20:16:51 10° NNW visible
21 Nov 4.2 17:53:08 10° ESE 17:56:45 20° ENE 18:00:23 10° NNE visible
21 Nov 3.1 19:31:41 20° S 19:35:16 73° WSW 19:40:22 10° NNW visible
21 Nov 6.0 21:14:03 10° W 21:15:12 11° W 21:16:22 10° WNW visible
22 Nov 4.8 17:19:12 10° ENE 17:20:33 11° NE 17:21:54 10° NE visible
22 Nov 3.0 18:54:38 16° SE 18:58:33 58° ENE 19:03:33 10° N visible
22 Nov 5.2 20:34:50 13° SW 20:37:57 22° W 20:41:54 10° NW visible
23 Nov 6.0 06:59:28 10° NE 07:02:13 14° E 07:04:58 10° ESE visible
23 Nov 3.7 18:17:38 10° ESE 18:22:02 30° ENE 18:26:26 10° N visible
23 Nov 4.0 19:57:47 21° SSW 20:00:54 44° W 20:05:47 10° NNW visible
24 Nov 4.4 17:42:32 10° E 17:45:41 17° NE 17:48:52 10° NNE visible
24 Nov 2.9 19:20:42 22° SSE 19:24:03 88° WSW 19:29:11 10° NNW visible
24 Nov 5.8 21:01:21 10° WSW 21:03:50 14° W 21:06:20 10° NW visible
25 Nov 5.6 07:24:02 10° NE 07:28:06 24° E 07:32:09 10° SE visible
25 Nov 3.2 18:43:36 16° SE 18:47:24 47° ENE 18:52:16 10° N visible
25 Nov 4.9 20:23:50 17° SW 20:26:39 27° W 20:30:58 10° NW visible
